DAL7931 KATL-TJSJ

Flight info

Callsign DAL7931
Flight time 2h 57m
Altitude 35000
Route VRSTY3 NOKIE DCT YANTI Q89 MANLE Y185 RENAH Y355 PLING RTE7 SAALR
Aircraft A320/M-SDE3FGHIRWY/LB1

Departure

Time 2026-05-06 01:37
Airport Hartsfield Jackson Atlanta International Airport (KATL)

Arrival

Time 2026-05-06 04:35
Airport Luis Munoz Marin International Airport (TJSJ)
Time Latitude Longitude Altitude Speed Heading
2026-05-06 01:19 33.63835 -84.43641 1035 ft 0 kts 90°
2026-05-06 01:29 33.63835 -84.43649 1035 ft 2 kts 90°
2026-05-06 01:29 33.63835 -84.43670 1035 ft 2 kts 90°
2026-05-06 01:30 33.63835 -84.43691 1035 ft 2 kts 92°
2026-05-06 01:30 33.63841 -84.43709 1035 ft 2 kts 165°
2026-05-06 01:30 33.63845 -84.43711 1035 ft 0 kts 181°
2026-05-06 01:31 33.63841 -84.43711 1035 ft 4 kts 180°
2026-05-06 01:32 33.63779 -84.43718 1035 ft 13 kts 188°
2026-05-06 01:32 33.63679 -84.43695 1035 ft 18 kts 131°
2026-05-06 01:32 33.63666 -84.43526 1035 ft 24 kts 90°
2026-05-06 01:32 33.63665 -84.43315 1035 ft 26 kts 90°
2026-05-06 01:33 33.63665 -84.43100 1035 ft 26 kts 90°
2026-05-06 01:33 33.63664 -84.42883 1035 ft 26 kts 90°
2026-05-06 01:33 33.63657 -84.42664 1036 ft 26 kts 92°
2026-05-06 01:33 33.63655 -84.42445 1035 ft 27 kts 90°
2026-05-06 01:34 33.63652 -84.42223 1036 ft 27 kts 91°
2026-05-06 01:34 33.63651 -84.41999 1035 ft 27 kts 89°
2026-05-06 01:34 33.63653 -84.41771 1035 ft 27 kts 89°
2026-05-06 01:34 33.63654 -84.41541 1035 ft 28 kts 90°
2026-05-06 01:35 33.63655 -84.41309 1035 ft 28 kts 90°
2026-05-06 01:35 33.63655 -84.41079 1035 ft 27 kts 89°
2026-05-06 01:35 33.63656 -84.40895 1035 ft 18 kts 90°
2026-05-06 01:35 33.63575 -84.40833 1036 ft 16 kts 179°
2026-05-06 01:36 33.63475 -84.40851 1036 ft 14 kts 237°
2026-05-06 01:36 33.63472 -84.40873 1036 ft 0 kts 267°
2026-05-06 01:36 33.63471 -84.41054 1035 ft 57 kts 270°
2026-05-06 01:37 33.63472 -84.41797 1035 ft 119 kts 270°
2026-05-06 01:37 33.63470 -84.42996 1036 ft 167 kts 270°
2026-05-06 01:37 33.63495 -84.44475 1367 ft 182 kts 271°
2026-05-06 01:37 33.63498 -84.45996 2061 ft 181 kts 263°
2026-05-06 01:38 33.63488 -84.47503 2748 ft 181 kts 264°
2026-05-06 01:38 33.63474 -84.49070 3050 ft 198 kts 264°
2026-05-06 01:38 33.63457 -84.50830 3246 ft 223 kts 264°
2026-05-06 01:38 33.63443 -84.52764 3520 ft 247 kts 265°
2026-05-06 01:39 33.63435 -84.54909 4098 ft 258 kts 265°
2026-05-06 01:39 33.63435 -84.57072 4885 ft 260 kts 266°
2026-05-06 01:39 33.63439 -84.59246 5719 ft 260 kts 266°
2026-05-06 01:39 33.63442 -84.61410 6602 ft 259 kts 267°
2026-05-06 01:40 33.63333 -84.63527 7359 ft 257 kts 256°
2026-05-06 01:40 33.62667 -84.65514 8066 ft 259 kts 238°
2026-05-06 01:40 33.61439 -84.67115 8779 ft 266 kts 219°
2026-05-06 01:40 33.59838 -84.68274 9491 ft 271 kts 213°
2026-05-06 01:41 33.58081 -84.69183 10124 ft 282 kts 199°
2026-05-06 01:41 33.56090 -84.69434 10676 ft 296 kts 181°
2026-05-06 01:41 33.54014 -84.69084 11241 ft 305 kts 176°
2026-05-06 01:41 33.51906 -84.68677 11853 ft 309 kts 176°
2026-05-06 01:42 33.49771 -84.68266 12468 ft 313 kts 176°
2026-05-06 01:42 33.47599 -84.67853 13082 ft 318 kts 176°
2026-05-06 01:42 33.45405 -84.67402 13684 ft 324 kts 170°
2026-05-06 01:42 33.43268 -84.66413 14209 ft 336 kts 154°
2026-05-06 01:43 33.41357 -84.64730 14614 ft 351 kts 138°
2026-05-06 01:43 33.39820 -84.62346 14735 ft 374 kts 121°
2026-05-06 01:43 33.38512 -84.59573 14892 ft 391 kts 121°
2026-05-06 01:43 33.37158 -84.56715 15303 ft 398 kts 121°
2026-05-06 01:44 33.35774 -84.53821 15805 ft 403 kts 121°
2026-05-06 01:44 33.34368 -84.50902 16323 ft 407 kts 121°
2026-05-06 01:44 33.32946 -84.47958 16838 ft 411 kts 121°
2026-05-06 01:44 33.31506 -84.44981 17352 ft 415 kts 121°
2026-05-06 01:45 33.30053 -84.41981 17844 ft 419 kts 121°
2026-05-06 01:45 33.28585 -84.38951 18336 ft 423 kts 121°
2026-05-06 01:45 33.27104 -84.35893 18806 ft 427 kts 121°
2026-05-06 01:45 33.25614 -84.32810 19239 ft 430 kts 122°
2026-05-06 01:46 33.24112 -84.29704 19651 ft 434 kts 122°
2026-05-06 01:46 33.22593 -84.26569 20063 ft 437 kts 121°
2026-05-06 01:46 33.21064 -84.23420 20476 ft 440 kts 121°
2026-05-06 01:46 33.19524 -84.20249 20886 ft 443 kts 121°
2026-05-06 01:47 33.17973 -84.17059 21299 ft 446 kts 122°
2026-05-06 01:47 33.16407 -84.13846 21708 ft 449 kts 122°
2026-05-06 01:47 33.14833 -84.10617 22115 ft 452 kts 122°
2026-05-06 01:47 33.13247 -84.07366 22522 ft 455 kts 122°
2026-05-06 01:48 33.11648 -84.04093 22903 ft 458 kts 122°
2026-05-06 01:48 33.10011 -84.00822 23284 ft 460 kts 126°
2026-05-06 01:48 33.08045 -83.97821 23643 ft 460 kts 136°
2026-05-06 01:48 33.05707 -83.95232 23934 ft 458 kts 146°
2026-05-06 01:49 33.03112 -83.93031 24229 ft 459 kts 149°
2026-05-06 01:49 33.00483 -83.90853 24493 ft 463 kts 149°
2026-05-06 01:49 32.97834 -83.88646 24760 ft 466 kts 149°
2026-05-06 01:49 32.95173 -83.86421 25025 ft 469 kts 149°
2026-05-06 01:50 32.92494 -83.84178 25291 ft 473 kts 149°
2026-05-06 01:50 32.89795 -83.81918 25555 ft 476 kts 149°
2026-05-06 01:50 32.87079 -83.79648 25808 ft 479 kts 149°
2026-05-06 01:50 32.84344 -83.77364 26061 ft 482 kts 149°
2026-05-06 01:51 32.82415 -83.75754 26231 ft 484 kts 149°
2026-05-06 01:51 32.79653 -83.73454 26485 ft 487 kts 149°
2026-05-06 01:51 32.76868 -83.71139 26737 ft 489 kts 149°
2026-05-06 01:51 32.74067 -83.68813 26983 ft 492 kts 149°
2026-05-06 01:52 32.71254 -83.66481 27195 ft 495 kts 149°
2026-05-06 01:52 32.68423 -83.64134 27435 ft 498 kts 148°
2026-05-06 01:52 32.65598 -83.61727 27663 ft 501 kts 147°
2026-05-06 01:52 32.62788 -83.59254 27892 ft 504 kts 146°
2026-05-06 01:53 32.59986 -83.56736 28122 ft 507 kts 146°
2026-05-06 01:53 32.57173 -83.54193 28348 ft 510 kts 146°
2026-05-06 01:53 32.54342 -83.51649 28540 ft 513 kts 146°
2026-05-06 01:53 32.51479 -83.49098 28735 ft 516 kts 146°
2026-05-06 01:54 32.48596 -83.46550 28939 ft 518 kts 147°
2026-05-06 01:54 32.45692 -83.44000 29148 ft 521 kts 147°
2026-05-06 01:54 32.42772 -83.41452 29332 ft 523 kts 147°
2026-05-06 01:54 32.39840 -83.38898 29543 ft 525 kts 147°
2026-05-06 01:55 32.36893 -83.36327 29736 ft 527 kts 147°
2026-05-06 01:55 32.33940 -83.33741 29966 ft 529 kts 146°
2026-05-06 01:55 32.30974 -83.31136 30156 ft 532 kts 146°
2026-05-06 01:55 32.28008 -83.28533 30390 ft 532 kts 147°
2026-05-06 01:56 32.25039 -83.25932 30638 ft 531 kts 147°
2026-05-06 01:56 32.22066 -83.23333 30874 ft 532 kts 147°
2026-05-06 01:56 32.19091 -83.20736 31102 ft 532 kts 147°
2026-05-06 01:56 32.16118 -83.18144 31300 ft 532 kts 147°
2026-05-06 01:57 32.13142 -83.15553 31540 ft 532 kts 147°
2026-05-06 01:57 32.10162 -83.12957 31738 ft 532 kts 147°
2026-05-06 01:57 32.07183 -83.10366 31946 ft 533 kts 147°
2026-05-06 01:57 32.04204 -83.07777 32147 ft 533 kts 147°
2026-05-06 01:58 32.01219 -83.05187 32374 ft 533 kts 147°
2026-05-06 01:58 31.98230 -83.02597 32602 ft 533 kts 147°
2026-05-06 01:58 31.95246 -83.00009 32823 ft 533 kts 147°
2026-05-06 01:58 31.92262 -82.97422 33040 ft 533 kts 147°
2026-05-06 01:59 31.89316 -82.94869 33256 ft 533 kts 147°
2026-05-06 01:59 31.86333 -82.92289 33469 ft 533 kts 147°
2026-05-06 01:59 31.83347 -82.89708 33704 ft 532 kts 147°
2026-05-06 01:59 31.80364 -82.87130 33929 ft 532 kts 147°
2026-05-06 02:00 31.77391 -82.84536 34126 ft 533 kts 146°
2026-05-06 02:00 31.74469 -82.81862 34303 ft 534 kts 145°
2026-05-06 02:00 31.71585 -82.79109 34471 ft 534 kts 144°
2026-05-06 02:00 31.68724 -82.76317 34638 ft 535 kts 143°
2026-05-06 02:01 31.65864 -82.73518 34778 ft 535 kts 143°
2026-05-06 02:01 31.62997 -82.70733 34939 ft 535 kts 143°
2026-05-06 02:01 31.57231 -82.65235 35048 ft 533 kts 144°
2026-05-06 02:02 31.51437 -82.59798 35082 ft 533 kts 144°
2026-05-06 02:02 31.45656 -82.54370 35082 ft 533 kts 144°
2026-05-06 02:03 31.39881 -82.48931 35076 ft 533 kts 144°
2026-05-06 02:03 31.34114 -82.43482 35091 ft 533 kts 144°
2026-05-06 02:04 31.28335 -82.38046 35078 ft 533 kts 144°
2026-05-06 02:04 31.22541 -82.32622 35081 ft 534 kts 144°
2026-05-06 02:05 31.16734 -82.27194 35081 ft 535 kts 144°
2026-05-06 02:05 31.10931 -82.21754 35078 ft 535 kts 144°
2026-05-06 02:06 31.05152 -82.16356 35075 ft 535 kts 144°
2026-05-06 02:06 30.99292 -82.10907 35049 ft 535 kts 144°
2026-05-06 02:07 30.93508 -82.05532 35069 ft 535 kts 144°
2026-05-06 02:07 30.87689 -82.00128 35075 ft 535 kts 144°
2026-05-06 02:08 30.81876 -81.94731 35082 ft 535 kts 144°
2026-05-06 02:08 30.76056 -81.89337 35081 ft 535 kts 144°
2026-05-06 02:09 30.70239 -81.83954 35081 ft 534 kts 144°
2026-05-06 02:09 30.64422 -81.78585 35087 ft 534 kts 144°
2026-05-06 02:10 30.58537 -81.73346 35095 ft 532 kts 147°
2026-05-06 02:10 30.52445 -81.68478 35099 ft 531 kts 150°
2026-05-06 02:11 30.46300 -81.63727 35105 ft 531 kts 149°
2026-05-06 02:11 30.40191 -81.58895 35096 ft 532 kts 148°
2026-05-06 02:12 30.34121 -81.53980 35104 ft 533 kts 148°
2026-05-06 02:12 30.28052 -81.49060 35104 ft 533 kts 148°
2026-05-06 02:13 30.21961 -81.44176 35097 ft 533 kts 148°
2026-05-06 02:13 30.15861 -81.39314 35104 ft 533 kts 148°
2026-05-06 02:14 30.09760 -81.34455 35085 ft 532 kts 148°
2026-05-06 02:14 30.03665 -81.29594 35107 ft 532 kts 148°
2026-05-06 02:15 29.97572 -81.24747 35116 ft 532 kts 148°
2026-05-06 02:15 29.91522 -81.19934 35112 ft 532 kts 148°
2026-05-06 02:16 29.85423 -81.15088 35109 ft 532 kts 148°
2026-05-06 02:16 29.79041 -81.10900 35088 ft 524 kts 162°
2026-05-06 02:17 29.72288 -81.07729 35102 ft 524 kts 162°
2026-05-06 02:17 29.65539 -81.04549 35107 ft 524 kts 162°
2026-05-06 02:18 29.58800 -81.01362 35104 ft 524 kts 162°
2026-05-06 02:18 29.52436 -80.98357 35114 ft 524 kts 162°
2026-05-06 02:19 29.45694 -80.95183 35096 ft 523 kts 162°
2026-05-06 02:19 29.38964 -80.92014 35099 ft 523 kts 162°
2026-05-06 02:20 29.28863 -80.87274 35114 ft 523 kts 162°
2026-05-06 02:21 29.22129 -80.84122 35094 ft 523 kts 162°
2026-05-06 02:21 29.15391 -80.80967 35103 ft 523 kts 162°
2026-05-06 02:22 29.08659 -80.77820 35109 ft 523 kts 162°
2026-05-06 02:22 29.01931 -80.74677 35110 ft 522 kts 162°
2026-05-06 02:23 28.95200 -80.71537 35106 ft 522 kts 162°
2026-05-06 02:23 28.88739 -80.67835 35078 ft 527 kts 147°
2026-05-06 02:23 28.85871 -80.65225 35083 ft 528 kts 136°
2026-05-06 02:24 28.83380 -80.62164 35081 ft 527 kts 126°
2026-05-06 02:24 28.79251 -80.55222 35079 ft 525 kts 121°
2026-05-06 02:25 28.75231 -80.48333 35087 ft 526 kts 121°
2026-05-06 02:25 28.71156 -80.41406 35084 ft 526 kts 121°
2026-05-06 02:26 28.67077 -80.34479 35082 ft 527 kts 121°
2026-05-06 02:26 28.62974 -80.27563 35080 ft 527 kts 122°
2026-05-06 02:27 28.58864 -80.20661 35069 ft 527 kts 122°
2026-05-06 02:27 28.54752 -80.13760 35115 ft 527 kts 121°
2026-05-06 02:28 28.50644 -80.06859 35107 ft 527 kts 121°
2026-05-06 02:28 28.46530 -79.99966 35114 ft 527 kts 121°
2026-05-06 02:29 28.38297 -79.86216 35107 ft 527 kts 122°
2026-05-06 02:30 28.34174 -79.79334 35125 ft 527 kts 121°
2026-05-06 02:30 28.30045 -79.72462 35121 ft 527 kts 121°
2026-05-06 02:31 28.25907 -79.65594 35093 ft 527 kts 121°
2026-05-06 02:31 28.21773 -79.58734 35107 ft 527 kts 122°
2026-05-06 02:32 28.17639 -79.51883 35110 ft 526 kts 122°
2026-05-06 02:32 28.13501 -79.45039 35110 ft 526 kts 122°
2026-05-06 02:33 28.09357 -79.38215 35125 ft 526 kts 121°
2026-05-06 02:33 28.07980 -79.35949 35130 ft 526 kts 121°
2026-05-06 02:34 28.01070 -79.24560 35119 ft 526 kts 121°
2026-05-06 02:34 27.96930 -79.17747 35112 ft 526 kts 121°
2026-05-06 02:35 27.92777 -79.10938 35094 ft 525 kts 122°
2026-05-06 02:35 27.88624 -79.04138 35126 ft 525 kts 121°
2026-05-06 02:36 27.84474 -78.97345 35123 ft 525 kts 121°
2026-05-06 02:36 27.80320 -78.90565 35117 ft 525 kts 122°
2026-05-06 02:37 27.76163 -78.83797 35118 ft 524 kts 122°
2026-05-06 02:37 27.72009 -78.77035 35106 ft 524 kts 122°
2026-05-06 02:38 27.67879 -78.70321 35110 ft 524 kts 122°
2026-05-06 02:38 27.63717 -78.63565 35120 ft 524 kts 121°
2026-05-06 02:39 27.59675 -78.56750 35119 ft 522 kts 120°
2026-05-06 02:39 27.55731 -78.49877 35099 ft 522 kts 120°
2026-05-06 02:40 27.51778 -78.43027 35103 ft 522 kts 120°
2026-05-06 02:40 27.47779 -78.36202 35098 ft 522 kts 120°
2026-05-06 02:41 27.43766 -78.29402 35108 ft 522 kts 120°
2026-05-06 02:41 27.39758 -78.22598 35108 ft 521 kts 120°
2026-05-06 02:42 27.35760 -78.15790 35099 ft 522 kts 120°
2026-05-06 02:42 27.31782 -78.09033 35098 ft 522 kts 120°
2026-05-06 02:43 27.27773 -78.02234 35096 ft 521 kts 120°
2026-05-06 02:43 27.23754 -77.95450 35112 ft 521 kts 121°
2026-05-06 02:44 27.19731 -77.88674 35119 ft 521 kts 121°
2026-05-06 02:44 27.15720 -77.81908 35115 ft 521 kts 120°
2026-05-06 02:45 27.11709 -77.75137 35110 ft 520 kts 121°
2026-05-06 02:45 27.07696 -77.68377 35113 ft 521 kts 121°
2026-05-06 02:46 27.03673 -77.61623 35105 ft 520 kts 121°
2026-05-06 02:46 26.99650 -77.54876 35115 ft 520 kts 121°
2026-05-06 02:47 26.95690 -77.48103 35117 ft 519 kts 120°
2026-05-06 02:47 26.91772 -77.41321 35111 ft 518 kts 120°
2026-05-06 02:48 26.87838 -77.34554 35083 ft 518 kts 120°
2026-05-06 02:48 26.83916 -77.27859 35087 ft 518 kts 120°
2026-05-06 02:49 26.79963 -77.21125 35105 ft 517 kts 121°
2026-05-06 02:49 26.76014 -77.14398 35109 ft 517 kts 121°
2026-05-06 02:50 26.72069 -77.07686 35103 ft 516 kts 121°
2026-05-06 02:50 26.68125 -77.00988 35100 ft 516 kts 121°
2026-05-06 02:51 26.64178 -76.94293 35099 ft 515 kts 121°
2026-05-06 02:51 26.60231 -76.87611 35096 ft 515 kts 121°
2026-05-06 02:52 26.56285 -76.80939 35110 ft 514 kts 121°
2026-05-06 02:52 26.52347 -76.74282 35093 ft 513 kts 121°
2026-05-06 02:53 26.48417 -76.67643 35095 ft 512 kts 121°
2026-05-06 02:53 26.44480 -76.61010 35097 ft 512 kts 121°
2026-05-06 02:54 26.40540 -76.54392 35092 ft 512 kts 121°
2026-05-06 02:54 26.37261 -76.48895 35107 ft 512 kts 122°
2026-05-06 02:55 26.33333 -76.42293 35112 ft 510 kts 122°
2026-05-06 02:55 26.29406 -76.35707 35109 ft 509 kts 122°
2026-05-06 02:56 26.25478 -76.29148 35107 ft 509 kts 122°
2026-05-06 02:56 26.21555 -76.22603 35105 ft 508 kts 122°
2026-05-06 02:57 26.17631 -76.16052 35075 ft 508 kts 122°
2026-05-06 02:57 26.13709 -76.09519 35093 ft 507 kts 122°
2026-05-06 02:58 26.09790 -76.02998 35104 ft 506 kts 122°
2026-05-06 02:58 26.05872 -75.96495 35109 ft 506 kts 123°
2026-05-06 02:59 26.01982 -75.90044 35103 ft 505 kts 123°
2026-05-06 02:59 25.98060 -75.83565 35105 ft 505 kts 123°
2026-05-06 03:00 25.94149 -75.77087 35117 ft 505 kts 122°
2026-05-06 03:00 25.90236 -75.70616 35112 ft 504 kts 123°
2026-05-06 03:01 25.86322 -75.64170 35109 ft 503 kts 123°
2026-05-06 03:01 25.82402 -75.57727 35084 ft 503 kts 123°
2026-05-06 03:02 25.78483 -75.51288 35085 ft 503 kts 123°
2026-05-06 03:02 25.74565 -75.44850 35085 ft 504 kts 123°
2026-05-06 03:03 25.70644 -75.38410 35103 ft 504 kts 123°
2026-05-06 03:03 25.66724 -75.31977 35099 ft 503 kts 123°
2026-05-06 03:04 25.62792 -75.25560 35101 ft 503 kts 124°
2026-05-06 03:04 25.58862 -75.19150 35101 ft 503 kts 123°
2026-05-06 03:05 25.54932 -75.12740 35098 ft 503 kts 124°
2026-05-06 03:05 25.50994 -75.06333 35101 ft 503 kts 124°
2026-05-06 03:06 25.47088 -74.99985 35086 ft 502 kts 124°
2026-05-06 03:06 25.43153 -74.93601 35086 ft 502 kts 124°
2026-05-06 03:07 25.39224 -74.87216 35092 ft 502 kts 124°
2026-05-06 03:07 25.35294 -74.80839 35093 ft 502 kts 124°
2026-05-06 03:08 25.31354 -74.74469 35091 ft 502 kts 124°
2026-05-06 03:08 25.27404 -74.68102 35097 ft 502 kts 124°
2026-05-06 03:09 25.23457 -74.61742 35100 ft 502 kts 124°
2026-05-06 03:09 25.19509 -74.55384 35097 ft 502 kts 124°
2026-05-06 03:10 25.15559 -74.49035 35101 ft 502 kts 124°
2026-05-06 03:10 25.11612 -74.42681 35065 ft 502 kts 124°
2026-05-06 03:11 25.07661 -74.36332 35075 ft 502 kts 124°
2026-05-06 03:11 25.03704 -74.29983 35091 ft 502 kts 124°
2026-05-06 03:12 24.99745 -74.23641 35100 ft 502 kts 124°
2026-05-06 03:12 24.95784 -74.17305 35101 ft 502 kts 124°
2026-05-06 03:13 24.91821 -74.10980 35103 ft 502 kts 124°
2026-05-06 03:13 24.87872 -74.04703 35102 ft 502 kts 124°
2026-05-06 03:14 24.83905 -73.98389 35118 ft 501 kts 124°
2026-05-06 03:14 24.79940 -73.92085 35120 ft 501 kts 124°
2026-05-06 03:15 24.75980 -73.85789 35117 ft 500 kts 124°
2026-05-06 03:15 24.72021 -73.79501 35092 ft 500 kts 124°
2026-05-06 03:16 24.68052 -73.73223 35096 ft 500 kts 125°
2026-05-06 03:16 24.64072 -73.66951 35097 ft 500 kts 124°
2026-05-06 03:17 24.60105 -73.60674 35099 ft 500 kts 125°
2026-05-06 03:17 24.56153 -73.54396 35100 ft 499 kts 123°
2026-05-06 03:18 24.52494 -73.47918 35105 ft 499 kts 120°
2026-05-06 03:18 24.49064 -73.41299 35103 ft 499 kts 119°
2026-05-06 03:19 24.45608 -73.34696 35104 ft 499 kts 120°
2026-05-06 03:19 24.42091 -73.28194 35110 ft 499 kts 120°
2026-05-06 03:20 24.36738 -73.18415 35080 ft 498 kts 120°
2026-05-06 03:20 24.33190 -73.11891 35088 ft 498 kts 120°
2026-05-06 03:21 24.29651 -73.05365 35092 ft 498 kts 120°
2026-05-06 03:21 24.26099 -72.98844 35093 ft 498 kts 120°
2026-05-06 03:22 24.22544 -72.92333 35102 ft 498 kts 120°
2026-05-06 03:22 24.18982 -72.85829 35104 ft 497 kts 120°
2026-05-06 03:23 24.15425 -72.79335 35107 ft 497 kts 120°
2026-05-06 03:23 24.11874 -72.72846 35103 ft 497 kts 120°
2026-05-06 03:24 24.08323 -72.66356 35103 ft 497 kts 120°
2026-05-06 03:24 24.04771 -72.59877 35109 ft 497 kts 120°
2026-05-06 03:25 24.01201 -72.53409 35109 ft 498 kts 121°
2026-05-06 03:25 23.97581 -72.46863 35094 ft 508 kts 120°
2026-05-06 03:26 23.93909 -72.40201 35109 ft 515 kts 120°
2026-05-06 03:26 23.90211 -72.33480 35109 ft 516 kts 120°
2026-05-06 03:27 23.86506 -72.26765 35109 ft 516 kts 120°
2026-05-06 03:27 23.82789 -72.20066 35112 ft 515 kts 120°
2026-05-06 03:28 23.79066 -72.13377 35101 ft 515 kts 120°
2026-05-06 03:28 23.75364 -72.06692 35100 ft 515 kts 120°
2026-05-06 03:29 23.71654 -72.00003 35106 ft 515 kts 120°
2026-05-06 03:29 23.67968 -71.93380 35102 ft 514 kts 120°
2026-05-06 03:30 23.64244 -71.86709 35100 ft 514 kts 121°
2026-05-06 03:30 23.60463 -71.80094 35100 ft 514 kts 126°
2026-05-06 03:31 23.56153 -71.73870 35097 ft 514 kts 127°
2026-05-06 03:31 23.51846 -71.67651 35098 ft 514 kts 127°
2026-05-06 03:32 23.47543 -71.61433 35101 ft 514 kts 127°
2026-05-06 03:32 23.43234 -71.55217 35099 ft 514 kts 127°
2026-05-06 03:33 23.38919 -71.49020 35103 ft 513 kts 127°
2026-05-06 03:33 23.34607 -71.42830 35105 ft 513 kts 127°
2026-05-06 03:34 23.30297 -71.36640 35102 ft 513 kts 127°
2026-05-06 03:34 23.25985 -71.30455 35106 ft 513 kts 127°
2026-05-06 03:35 23.21668 -71.24277 35089 ft 513 kts 127°
2026-05-06 03:35 23.17350 -71.18121 35099 ft 512 kts 127°
2026-05-06 03:36 23.13036 -71.11955 35103 ft 512 kts 127°
2026-05-06 03:36 23.08730 -71.05800 35105 ft 512 kts 127°
2026-05-06 03:37 23.04420 -70.99642 35104 ft 512 kts 127°
2026-05-06 03:37 23.00131 -70.93546 35104 ft 512 kts 127°
2026-05-06 03:38 22.95809 -70.87408 35112 ft 511 kts 127°
2026-05-06 03:38 22.91496 -70.81278 35120 ft 511 kts 127°
2026-05-06 03:39 22.87174 -70.75169 35118 ft 510 kts 127°
2026-05-06 03:39 22.82856 -70.69074 35104 ft 509 kts 127°
2026-05-06 03:40 22.78541 -70.62991 35112 ft 509 kts 127°
2026-05-06 03:40 22.74226 -70.56917 35111 ft 508 kts 127°
2026-05-06 03:41 22.69919 -70.50848 35117 ft 507 kts 127°
2026-05-06 03:41 22.65620 -70.44800 35127 ft 506 kts 127°
2026-05-06 03:42 22.61322 -70.38764 35124 ft 506 kts 127°
2026-05-06 03:42 22.57032 -70.32746 35127 ft 505 kts 127°
2026-05-06 03:43 22.52744 -70.26723 35121 ft 505 kts 127°
2026-05-06 03:43 22.49181 -70.21731 35117 ft 505 kts 127°
2026-05-06 03:44 22.44196 -70.14770 35126 ft 503 kts 127°
2026-05-06 03:44 22.39919 -70.08800 35130 ft 502 kts 127°
2026-05-06 03:45 22.36344 -70.03810 35129 ft 501 kts 127°
2026-05-06 03:45 22.32082 -69.97866 35127 ft 500 kts 127°
2026-05-06 03:46 22.27850 -69.91968 35123 ft 500 kts 127°
2026-05-06 03:46 22.23588 -69.86040 35127 ft 500 kts 128°
2026-05-06 03:47 22.19332 -69.80127 35133 ft 498 kts 128°
2026-05-06 03:47 22.15084 -69.74226 35132 ft 497 kts 128°
2026-05-06 03:48 22.10841 -69.68338 35115 ft 497 kts 128°
2026-05-06 03:48 22.06595 -69.62457 35116 ft 497 kts 128°
2026-05-06 03:49 22.02341 -69.56590 35119 ft 496 kts 128°
2026-05-06 03:49 21.98090 -69.50731 35123 ft 496 kts 128°
2026-05-06 03:50 21.93848 -69.44869 35120 ft 496 kts 128°
2026-05-06 03:50 21.89608 -69.39018 35120 ft 495 kts 128°
2026-05-06 03:51 21.85360 -69.33179 35121 ft 495 kts 128°
2026-05-06 03:51 21.81117 -69.27343 35119 ft 495 kts 128°
2026-05-06 03:52 21.76876 -69.21507 35115 ft 495 kts 128°
2026-05-06 03:52 21.72631 -69.15680 35114 ft 494 kts 130°
2026-05-06 03:53 21.68402 -69.09871 35127 ft 493 kts 130°
2026-05-06 03:53 21.64170 -69.04082 35129 ft 492 kts 130°
2026-05-06 03:54 21.59943 -68.98305 35127 ft 491 kts 130°
2026-05-06 03:54 21.55755 -68.92572 35125 ft 491 kts 130°
2026-05-06 03:55 21.51534 -68.86805 35124 ft 491 kts 130°
2026-05-06 03:55 21.47317 -68.81061 35130 ft 489 kts 131°
2026-05-06 03:56 21.43114 -68.75330 35134 ft 488 kts 131°
2026-05-06 03:56 21.38917 -68.69615 35132 ft 487 kts 131°
2026-05-06 03:57 21.34717 -68.63916 35120 ft 486 kts 131°
2026-05-06 03:57 21.30529 -68.58227 35126 ft 486 kts 131°
2026-05-06 03:58 21.26351 -68.52543 35125 ft 485 kts 131°
2026-05-06 03:58 21.22166 -68.46870 35128 ft 485 kts 131°
2026-05-06 03:59 21.17980 -68.41216 35126 ft 484 kts 131°
2026-05-06 03:59 21.13802 -68.35555 35126 ft 484 kts 131°
2026-05-06 04:00 21.09624 -68.29906 35123 ft 484 kts 131°
2026-05-06 04:00 21.05443 -68.24260 35122 ft 484 kts 131°
2026-05-06 04:01 21.01263 -68.18625 35120 ft 484 kts 131°
2026-05-06 04:01 20.97103 -68.13028 35106 ft 483 kts 131°
2026-05-06 04:02 20.92921 -68.07402 35107 ft 483 kts 131°
2026-05-06 04:02 20.88743 -68.01769 35115 ft 483 kts 131°
2026-05-06 04:03 20.84571 -67.96136 35117 ft 483 kts 131°
2026-05-06 04:03 20.80434 -67.90468 35120 ft 483 kts 131°
2026-05-06 04:04 20.76326 -67.84777 35120 ft 483 kts 131°
2026-05-06 04:04 20.72206 -67.79104 35123 ft 483 kts 131°
2026-05-06 04:05 20.68067 -67.73447 35119 ft 483 kts 131°
2026-05-06 04:05 20.63929 -67.67788 35123 ft 483 kts 131°
2026-05-06 04:06 20.59803 -67.62127 35102 ft 483 kts 131°
2026-05-06 04:06 20.55667 -67.56465 35102 ft 483 kts 131°
2026-05-06 04:07 20.51532 -67.50806 35116 ft 483 kts 131°
2026-05-06 04:07 20.47391 -67.45158 35109 ft 483 kts 131°
2026-05-06 04:08 20.43248 -67.39509 35112 ft 483 kts 131°
2026-05-06 04:08 20.39108 -67.33869 35116 ft 483 kts 131°
2026-05-06 04:09 20.34966 -67.28228 35113 ft 483 kts 132°
2026-05-06 04:09 20.30818 -67.22601 35112 ft 483 kts 132°
2026-05-06 04:10 20.26702 -67.17012 35117 ft 482 kts 132°
2026-05-06 04:10 20.22566 -67.11388 35115 ft 482 kts 132°
2026-05-06 04:11 20.18430 -67.05775 35106 ft 481 kts 132°
2026-05-06 04:11 20.14292 -67.00172 35109 ft 481 kts 132°
2026-05-06 04:12 20.10159 -66.94582 35108 ft 480 kts 132°
2026-05-06 04:12 20.06027 -66.88998 35099 ft 480 kts 132°
2026-05-06 04:13 20.01888 -66.83427 35105 ft 479 kts 134°
2026-05-06 04:13 19.96981 -66.78787 35101 ft 468 kts 152°
2026-05-06 04:14 19.94155 -66.77097 34890 ft 465 kts 158°
2026-05-06 04:14 19.91253 -66.75576 34669 ft 465 kts 158°
2026-05-06 04:14 19.88349 -66.74053 34150 ft 467 kts 158°
2026-05-06 04:14 19.85418 -66.72518 33230 ft 470 kts 158°
2026-05-06 04:15 19.82492 -66.70976 32470 ft 469 kts 157°
2026-05-06 04:15 19.79568 -66.69431 31746 ft 469 kts 157°
2026-05-06 04:15 19.76652 -66.67887 31031 ft 468 kts 157°
2026-05-06 04:15 19.73741 -66.66346 30338 ft 468 kts 157°
2026-05-06 04:16 19.70829 -66.64808 29561 ft 467 kts 157°
2026-05-06 04:16 19.67922 -66.63278 28773 ft 466 kts 157°
2026-05-06 04:16 19.65015 -66.61751 28000 ft 465 kts 156°
2026-05-06 04:16 19.62118 -66.60229 27252 ft 464 kts 156°
2026-05-06 04:17 19.59228 -66.58710 26525 ft 463 kts 156°
2026-05-06 04:17 19.56348 -66.57196 25817 ft 462 kts 156°
2026-05-06 04:17 19.53477 -66.55689 25125 ft 460 kts 156°
2026-05-06 04:17 19.50611 -66.54188 24442 ft 458 kts 156°
2026-05-06 04:18 19.47795 -66.52714 23792 ft 457 kts 155°
2026-05-06 04:18 19.44949 -66.51224 23031 ft 456 kts 155°
2026-05-06 04:18 19.42111 -66.49734 22263 ft 454 kts 155°
2026-05-06 04:18 19.39281 -66.48247 21520 ft 453 kts 155°
2026-05-06 04:19 19.36459 -66.46763 20783 ft 452 kts 155°
2026-05-06 04:19 19.33649 -66.45286 20071 ft 451 kts 155°
2026-05-06 04:19 19.30842 -66.43815 19376 ft 449 kts 155°
2026-05-06 04:19 19.28048 -66.42354 18698 ft 447 kts 155°
2026-05-06 04:20 19.25261 -66.40898 17970 ft 446 kts 155°
2026-05-06 04:20 19.22488 -66.39448 17209 ft 444 kts 155°
2026-05-06 04:20 19.19720 -66.38005 16401 ft 444 kts 155°
2026-05-06 04:20 19.16953 -66.36565 15590 ft 443 kts 155°
2026-05-06 04:21 19.14191 -66.35126 14899 ft 440 kts 154°
2026-05-06 04:21 19.11466 -66.33702 14371 ft 433 kts 154°
2026-05-06 04:21 19.08775 -66.32333 13846 ft 426 kts 155°
2026-05-06 04:21 19.06101 -66.31037 13264 ft 420 kts 156°
2026-05-06 04:22 19.03455 -66.29795 12680 ft 408 kts 156°
2026-05-06 04:22 19.00926 -66.28620 12104 ft 386 kts 156°
2026-05-06 04:22 18.98519 -66.27497 11393 ft 371 kts 156°
2026-05-06 04:23 18.93976 -66.25350 10245 ft 340 kts 155°
2026-05-06 04:23 18.91901 -66.24362 10103 ft 314 kts 155°
2026-05-06 04:23 18.89992 -66.23451 10072 ft 287 kts 155°
2026-05-06 04:23 18.88227 -66.22610 9884 ft 273 kts 155°
2026-05-06 04:24 18.86515 -66.21794 9506 ft 269 kts 155°
2026-05-06 04:24 18.84796 -66.20973 9012 ft 273 kts 154°
2026-05-06 04:24 18.83050 -66.20141 8509 ft 277 kts 155°
2026-05-06 04:24 18.81281 -66.19301 8039 ft 280 kts 154°
2026-05-06 04:25 18.79521 -66.18466 7552 ft 274 kts 154°
2026-05-06 04:25 18.77810 -66.17653 7080 ft 266 kts 154°
2026-05-06 04:25 18.76138 -66.16885 6673 ft 258 kts 160°
2026-05-06 04:25 18.74410 -66.16455 6432 ft 255 kts 172°
2026-05-06 04:26 18.72641 -66.16428 6191 ft 254 kts 179°
2026-05-06 04:26 18.70879 -66.16526 6022 ft 253 kts 180°
2026-05-06 04:26 18.69204 -66.16611 5900 ft 254 kts 179°
2026-05-06 04:26 18.67446 -66.16700 5783 ft 252 kts 179°
2026-05-06 04:27 18.65693 -66.16792 5659 ft 252 kts 180°
2026-05-06 04:27 18.63939 -66.16885 5538 ft 253 kts 181°
2026-05-06 04:27 18.62209 -66.16978 5422 ft 252 kts 180°
2026-05-06 04:27 18.60443 -66.17202 5304 ft 253 kts 185°
2026-05-06 04:28 18.58734 -66.17480 5185 ft 251 kts 186°
2026-05-06 04:28 18.56982 -66.17762 4685 ft 259 kts 185°
2026-05-06 04:28 18.55228 -66.18042 4469 ft 251 kts 186°
2026-05-06 04:28 18.53498 -66.18321 3983 ft 251 kts 185°
2026-05-06 04:29 18.51785 -66.18597 3500 ft 245 kts 185°
2026-05-06 04:29 18.50165 -66.18861 3446 ft 228 kts 185°
2026-05-06 04:29 18.48645 -66.19108 3387 ft 215 kts 185°
2026-05-06 04:29 18.47183 -66.19343 3328 ft 211 kts 184°
2026-05-06 04:30 18.45743 -66.19317 3100 ft 203 kts 161°
2026-05-06 04:30 18.44507 -66.18654 3020 ft 199 kts 138°
2026-05-06 04:30 18.43687 -66.17553 2850 ft 186 kts 115°
2026-05-06 04:30 18.43384 -66.16272 2667 ft 177 kts 93°
2026-05-06 04:31 18.43381 -66.15025 2461 ft 164 kts 92°
2026-05-06 04:31 18.43380 -66.13876 2259 ft 151 kts 92°
2026-05-06 04:31 18.43378 -66.12802 2086 ft 143 kts 92°
2026-05-06 04:31 18.43376 -66.11761 1911 ft 140 kts 93°
2026-05-06 04:32 18.43374 -66.10740 1731 ft 139 kts 92°
2026-05-06 04:32 18.43372 -66.09718 1543 ft 140 kts 91°
2026-05-06 04:32 18.43371 -66.09026 1417 ft 140 kts 92°
2026-05-06 04:32 18.43369 -66.07997 1239 ft 141 kts 92°
2026-05-06 04:33 18.43367 -66.06963 1065 ft 141 kts 91°
2026-05-06 04:33 18.43365 -66.05920 888 ft 143 kts 91°
2026-05-06 04:33 18.43363 -66.04874 707 ft 144 kts 90°
2026-05-06 04:33 18.43361 -66.03825 522 ft 143 kts 91°
2026-05-06 04:34 18.43357 -66.02778 326 ft 142 kts 91°
2026-05-06 04:34 18.43361 -66.01733 143 ft 142 kts 91°
2026-05-06 04:34 18.43357 -66.00712 31 ft 130 kts 90°
2026-05-06 04:34 18.43353 -65.99891 20 ft 89 kts 90°
2026-05-06 04:35 18.43352 -65.99358 19 ft 54 kts 90°
2026-05-06 04:35 18.43357 -65.99114 18 ft 22 kts 74°
2026-05-06 04:35 18.43450 -65.99105 18 ft 15 kts 298°
2026-05-06 04:35 18.43463 -65.99223 18 ft 20 kts 268°
2026-05-06 04:36 18.43457 -65.99398 19 ft 28 kts 270°
2026-05-06 04:36 18.43461 -65.99592 19 ft 24 kts 270°
2026-05-06 04:36 18.43462 -65.99764 19 ft 23 kts 271°
2026-05-06 04:36 18.43481 -65.99901 20 ft 16 kts 317°
2026-05-06 04:37 18.43557 -65.99969 19 ft 14 kts 284°
2026-05-06 04:37 18.43561 -66.00056 19 ft 9 kts 271°
2026-05-06 04:37 18.43588 -66.00101 19 ft 7 kts 330°
2026-05-06 04:37 18.43608 -66.00134 20 ft 4 kts 304°
2026-05-06 04:38 18.43624 -66.00138 19 ft 0 kts 356°